Regional Weather Roundup
Issued by NWS

Home | Current Version | Previous Version | Graphics & Text | Print | Product List | Glossary Off
Versions: 1 2 3 4 5 6 7 8 9 10 11 12 13 14 15 16 17 18 19 20 21 22 23 24 25 26 27 28 29 30 31 32 33 34 35 36 37 38 39 40 41 42 43 44 45 46 47 48 49 50

000
ASUS43 KMKX 190021
RWRWI

WISCONSIN REGIONAL WEATHER ROUNDUP
NATIONAL WEATHER SERVICE MILWAUKEE/SULLIVAN WI
600 PM CST THU DEC 18 2014

NOTE: "FAIR" INDICATES FEW OR NO CLOUDS BELOW 12,000 FEET WITH NO
SIGNIFICANT WEATHER AND/OR OBSTRUCTIONS TO VISIBILITY.

WIZ001-002-006>008-014>016-023>028-190100-
NORTHWEST WISCONSIN

CITY           SKY/WX    TMP DP  RH WIND       PRES   REMARKS
SUPERIOR ARPT  CLOUDY    27  19  72 E3        30.27S
6HR MIN TEMP:  26; 6HR MAX TEMP:  28;

ASHLAND        CLOUDY    23  18  81 SW5       30.28S WCI  17
6HR MIN TEMP:  23; 6HR MAX TEMP:  27;

HAYWARD        CLOUDY    23  18  81 CALM      30.24S
6HR MIN TEMP:  22; 6HR MAX TEMP:  24;

SIREN          CLOUDY    23  19  87 SW3       30.26F
6HR MIN TEMP:  22; 6HR MAX TEMP:  23;

CUMBERLAND     CLOUDY    21  19  93 CALM      30.24S
RICE LAKE      CLOUDY    23  20  87 CALM      30.27S
6HR MIN TEMP:  23; 6HR MAX TEMP:  24;

CHETEK         CLOUDY    23  20  89 CALM      30.26R
6HR MIN TEMP:  22; 6HR MAX TEMP:  23;

LADYSMITH      CLOUDY    23  20  88 CALM      30.26S
6HR MIN TEMP:  23; 6HR MAX TEMP:  25;

EAU CLAIRE     CLOUDY    24  18  77 CALM      30.26S
6HR MIN TEMP:  23; 6HR MAX TEMP:  24;

MENOMONIE      CLOUDY    24  19  82 CALM      30.27S
6HR MIN TEMP:  24; 6HR MAX TEMP:  24;

NEW RICHMOND   CLOUDY    22  20  90 S3        30.26F
6HR MIN TEMP:  22; 6HR MAX TEMP:  23;

OSCEOLA        CLOUDY    23  19  85 CALM      30.30S
6HR MIN TEMP:  23; 6HR MAX TEMP:  24;

$$

WIZ003>005-009-010-017-018-190100-
NORTH CENTRAL WISCONSIN

CITY           SKY/WX    TMP DP  RH WIND       PRES   REMARKS
MANITOWISH WTR CLOUDY    13  13  99 CALM      30.21S FOG
6HR MIN TEMP:  12; 6HR MAX TEMP:  24;

ARBOR VITAE    CLEAR     17  15  92 CALM      30.21S FOG
6HR MIN TEMP:  17; 6HR MAX TEMP:  27;

WOODRUFF       CLEAR     17  15  92 CALM      30.21S FOG
6HR MIN TEMP:  17; 6HR MAX TEMP:  27;

RHINELANDER    CLEAR     18  15  88 NW5       30.21R WCI  11
6HR MIN TEMP:  18; 6HR MAX TEMP:  26;

EAGLE RIVER    CLEAR     16  15  99 CALM      30.20S FOG
6HR MIN TEMP:  15; 6HR MAX TEMP:  26; 6HR PCP:  0.03;

LAND O LAKES   CLEAR     10   7  89 CALM      30.22S
6HR MIN TEMP:  10; 6HR MAX TEMP:  27;

PHILLIPS       CLOUDY    21  17  83 CALM      30.22S
6HR MIN TEMP:  20; 6HR MAX TEMP:  22;

TOMAHAWK       CLEAR     13  10  91 CALM      30.23R
6HR MIN TEMP:  13; 6HR MAX TEMP:  24;

MEDFORD        CLOUDY    22  18  84 CALM      30.22S
6HR MIN TEMP:  22; 6HR MAX TEMP:  22;

MERRILL        CLEAR     15  14  95 CALM      30.22S
6HR MIN TEMP:  15; 6HR MAX TEMP:  25;

$$

WIZ029-030-035-036-043>047-190100-
CENTRAL WISCONSIN

CITY           SKY/WX    TMP DP  RH WIND       PRES   REMARKS
WAUSAU         CLEAR     22  17  81 W5        30.22R WCI  16
6HR MIN TEMP:  22; 6HR MAX TEMP:  26;

MOSINEE        CLEAR     21  19  93 NW5       30.23S WCI  15
MARSHFIELD     CLOUDY    25  19  78 CALM      30.23R
6HR MIN TEMP:  24; 6HR MAX TEMP:  25;

STEVENS POINT  PTCLDY    19  17  88 CALM      30.25R
6HR MIN TEMP:  19; 6HR MAX TEMP:  24;

WAUPACA        CLEAR     25  19  79 CALM      30.26R
6HR MIN TEMP:  25; 6HR MAX TEMP:  29;

WAUTOMA        CLOUDY    27  20  75 CALM      30.26R
6HR MIN TEMP:  27; 6HR MAX TEMP:  27;

WISC RAPIDS    CLOUDY    25  19  78 CALM      30.26R
6HR MIN TEMP:  25; 6HR MAX TEMP:  26;

CAMP DOUGLAS   CLOUDY    25  24  98 CALM      30.26S
6HR MIN TEMP:  24; 6HR MAX TEMP:  25; 6HR PCP: TRACE;

$$

WIZ011>013-019>022-031-037>040-048>050-190100-
NORTHEAST WISCONSIN

CITY           SKY/WX    TMP DP  RH WIND       PRES   REMARKS
ANTIGO         CLEAR     18  15  88 CALM      30.20S
6HR MIN TEMP:  18; 6HR MAX TEMP:  27;

SHAWANO        CLEAR     25  20  82 CALM      30.25R
6HR MIN TEMP:  25; 6HR MAX TEMP:  33;

OCONTO         CLEAR     20  19  98 CALM      30.26R
6HR MIN TEMP:  20; 6HR MAX TEMP:  30;

STURGEON BAY   CLEAR     21  14  73 CALM      30.26R
6HR MIN TEMP:  21; 6HR MAX TEMP:  27;

GREEN BAY      CLEAR     22  19  89 CALM      30.25S
6HR MIN TEMP:  22; 6HR MAX TEMP:  29;

MANITOWOC      PTCLDY    23  19  85 NW3       30.26S
6HR MIN TEMP:  23; 6HR MAX TEMP:  29;

APPLETON       PTCLDY    23  18  80 CALM      30.25R
CLINTONVILLE   CLEAR     23  19  86 CALM      30.24S
OSHKOSH        CLOUDY    27  18  69 N3        30.25R
6HR MIN TEMP:  27; 6HR MAX TEMP:  28;

$$

WIZ032>034-041-042-053>061-190100-
SOUTHWEST WISCONSIN

CITY           SKY/WX    TMP DP  RH WIND       PRES   REMARKS
LA CROSSE      CLOUDY    26  18  71 CALM      30.28S
6HR MIN TEMP:  25; 6HR MAX TEMP:  26;

SPARTA         CLOUDY    25  19  80 CALM      30.27S
6HR MIN TEMP:  24; 6HR MAX TEMP:  25;

VIROQUA        CLOUDY    23  20  86 NE3       30.23R
6HR MIN TEMP:  22; 6HR MAX TEMP:  24;

BOSCOBEL       CLOUDY    27  18  69 E3        30.27S
6HR MIN TEMP:  26; 6HR MAX TEMP:  28;

PRAIRIE DU CHI CLOUDY    27  17  65 CALM      30.27R
6HR MIN TEMP:  26; 6HR MAX TEMP:  28;

PLATTEVILLE    CLOUDY    26  19  77 CALM      30.25S
6HR MIN TEMP:  23; 6HR MAX TEMP:  28;

$$

WIZ056-057-062-063-064-067-068-190100-
SOUTH CENTRAL WISCONSIN

CITY           SKY/WX    TMP DP  RH WIND       PRES   REMARKS
REEDSBURG      CLOUDY    25  19  80 CALM      30.25S
6HR MIN TEMP:  24; 6HR MAX TEMP:  26;

BARABOO/DELLS  CLOUDY    25  20  80 CALM      30.25S
6HR MIN TEMP:  25; 6HR MAX TEMP:  26;

LONE ROCK      CLOUDY    29  18  63 CALM      30.27S
6HR MIN TEMP:  29; 6HR MAX TEMP:  30;

MINERAL POINT  CLOUDY    27  19  74 N3        30.24R
MADISON        FLURRIES  27  21  78 N3        30.25R
6HR MIN TEMP:  26; 6HR MAX TEMP:  27; 6HR PCP: TRACE;

MIDDLETON      CLOUDY    27  21  78 W3        30.25S
6HR MIN TEMP:  27; 6HR MAX TEMP:  28;

WATERTOWN      CLOUDY    26  25  94 N6        30.25R WCI  20
6HR MIN TEMP:  25; 6HR MAX TEMP:  27;

MONROE         CLOUDY    27  21  80 CALM      30.23S
JANESVILLE     CLOUDY    28  25  86 CALM      30.24R
$$

WIZ051-052-058>065-066-070>072-190100-
SOUTHEAST WISCONSIN

CITY           SKY/WX    TMP DP  RH WIND       PRES   REMARKS
MILWAUKEE      FLURRIES  29  23  78 N7        30.24R WCI  22
6HR MIN TEMP:  27; 6HR MAX TEMP:  29; 6HR PCP: TRACE;

WAUKESHA       CLOUDY    25  23  93 NW6       30.25R FOG     WCI  18
MILWAUKEE/TIMM CLOUDY    27  23  86 NW5       30.26R WCI  21
RACINE         CLOUDY    28  24  85 W6        30.26R WCI  22
6HR MIN TEMP:  28; 6HR MAX TEMP:  29;

BURLINGTON     CLOUDY    26  24  93 NW5       30.24S WCI  20
6HR MIN TEMP:  25; 6HR MAX TEMP:  27;

KENOSHA        CLOUDY    27  25  92 NW6       30.24R WCI  20
6HR MIN TEMP:  27; 6HR MAX TEMP:  29;

FOND DU LAC    CLOUDY    27  19  72 N3        30.25R
6HR MIN TEMP:  27; 6HR MAX TEMP:  28;

SHEBOYGAN      CLOUDY    27  21  78 NW7       30.24R WCI  19
6HR MIN TEMP:  27; 6HR MAX TEMP:  29;

WEST BEND      CLOUDY    28  21  74 N6        30.23S WCI  22
JUNEAU         CLOUDY    26  21  83 N5        30.26R WCI  20
6HR MIN TEMP:  26; 6HR MAX TEMP:  27;

$$

LSZ147-162-190100-
LAKE SUPERIOR

STATION/POSITION TIME  TEMP    WIND        PRES    WAVE
                       AIR SEA DIR/SP/G            HT/PER
                 (UTC) (F)     (DEG/KT/KT) (MB)    (FT/S)
DEVILS ISLAND    0000   28     110/ 10/ 11 1026.2F
PORT WING        2300   26     150/  5/  6 1025.4R
SAXON HARBOR     2300   26        CALM     1025.1S
$$

LMZ867-665-643>646-190100-
LAKE MICHIGAN

STATION/POSITION TIME  TEMP    WIND        PRES    WAVE



USA.gov is the U.S. government's official web portal to all federal, state and local government web resources and services.